Location: Fort Frances
(48.6170°N, 93.4170°W)
Time: 23:50:44
(UTC-05:00)

ISS - All Passes

Search period start: 30 June 2015 00:00
Search period end: 10 July 2015 00:00
Orbit: 398 x 403 km, 51.6° (Epoch: 30 June)

Date Brightness Start Highest point End Pass type
(mag) Time Alt. Az. Time Alt. Az. Time Alt. Az.
30 Jun - 10:21:18 10° S 10:23:44 20° SE 10:26:14 10° E daylight
30 Jun - 11:56:35 10° WSW 11:59:50 89° N 12:03:06 10° ENE daylight
30 Jun - 13:33:16 10° WNW 13:36:26 46° N 13:39:35 10° ENE daylight
30 Jun - 15:09:49 10° WNW 15:13:04 75° NNE 15:16:19 10° ESE daylight
30 Jun - 16:46:29 10° W 16:49:16 26° SW 16:52:01 10° SSE daylight
01 Jul - 09:29:14 10° SSE 09:30:29 12° SE 09:31:52 10° ESE daylight
01 Jul - 11:03:11 10° SW 11:06:24 60° SSE 11:09:37 10° ENE daylight
01 Jul - 12:39:41 10° W 12:42:52 51° N 12:46:03 10° ENE daylight
01 Jul - 14:16:20 10° WNW 14:19:33 57° NNE 14:22:46 10° E daylight
01 Jul - 15:52:49 10° WNW 15:55:55 42° SSW 15:59:00 10° SE daylight
02 Jul - 10:09:58 10° SW 10:13:00 37° SSE 10:16:03 10° ENE daylight
02 Jul - 11:46:05 10° W 11:49:19 61° NNW 11:52:33 10° ENE daylight
02 Jul - 13:22:50 10° WNW 13:26:00 49° N 13:29:10 10° E daylight
02 Jul - 14:59:16 10° WNW 15:02:31 69° SSW 15:05:44 10° ESE daylight
02 Jul - 16:36:38 10° WSW 16:38:28 14° SW 16:40:13 10° S daylight
03 Jul - 09:17:03 10° SSW 09:19:39 22° SE 09:22:17 10° E daylight
03 Jul - 10:52:32 10° WSW 10:55:47 83° NNW 10:59:03 10° ENE daylight
03 Jul - 12:29:15 10° WNW 12:32:25 46° N 12:35:34 10° ENE daylight
03 Jul - 14:05:46 10° WNW 14:09:01 81° NNE 14:12:16 10° ESE daylight
03 Jul - 15:42:30 10° W 15:45:10 23° SW 15:47:48 10° SSE daylight
04 Jul - 08:24:42 10° SSE 08:26:21 14° SE 08:28:06 10° ESE daylight
04 Jul - 09:59:04 10° WSW 10:02:17 67° SSE 10:05:32 10° ENE daylight
04 Jul - 11:35:37 10° W 11:38:48 49° N 11:41:59 10° ENE daylight
04 Jul - 13:12:15 10° WNW 13:15:28 60° NNE 13:18:42 10° E daylight
04 Jul - 14:48:45 10° WNW 14:51:48 38° SSW 14:54:50 10° SE daylight
05 Jul - 09:05:46 10° SW 09:08:51 41° SSE 09:11:56 10° ENE daylight
05 Jul - 10:41:59 10° W 10:45:12 58° NNW 10:48:25 10° ENE daylight
05 Jul - 12:18:42 10° WNW 12:21:53 50° N 12:25:04 10° E daylight
05 Jul - 13:55:09 10° WNW 13:58:22 62° SSW 14:01:34 10° SE daylight
05 Jul - 15:32:46 10° WSW 15:34:16 12° SW 15:35:41 10° SSW daylight
06 Jul - 08:12:44 10° SSW 08:15:27 25° SE 08:18:12 10° E daylight
06 Jul - 09:48:22 10° WSW 09:51:37 77° NNW 09:54:53 10° ENE daylight
06 Jul - 11:25:06 10° WNW 11:28:15 46° N 11:31:25 10° ENE daylight
06 Jul - 13:01:36 10° WNW 13:04:52 87° NNE 13:08:06 10° ESE daylight
06 Jul - 14:38:24 10° W 14:40:57 21° SW 14:43:27 10° SSE daylight
07 Jul - 07:20:10 10° S 07:22:06 15° SE 07:24:06 10° E daylight
07 Jul - 08:54:50 10° WSW 08:58:05 73° SSE 09:01:20 10° ENE daylight
07 Jul - 10:31:26 10° W 10:34:36 48° N 10:37:47 10° ENE daylight
07 Jul - 12:08:03 10° WNW 12:11:17 64° NNE 12:14:31 10° E daylight
07 Jul - 13:44:34 10° W 13:47:34 34° SSW 13:50:33 10° SSE daylight
08 Jul - 08:01:27 10° SW 08:04:35 45° SSE 08:07:43 10° ENE daylight
08 Jul - 09:37:46 10° W 09:40:58 56° NNW 09:44:11 10° ENE daylight
08 Jul - 11:14:27 10° WNW 11:17:39 52° N 11:20:50 10° E daylight
08 Jul - 12:50:54 10° WNW 12:54:06 56° SSW 12:57:17 10° SE daylight
08 Jul - 14:28:56 10° WSW 14:29:57 11° SW 14:30:53 10° SSW daylight
09 Jul - 07:08:19 10° SSW 07:11:08 28° SE 07:13:59 10° E daylight
09 Jul - 08:44:06 10° WSW 08:47:21 72° NNW 08:50:36 10° ENE daylight
09 Jul - 10:20:49 10° WNW 10:23:59 47° N 10:27:09 10° ENE daylight
09 Jul - 11:57:18 10° WNW 12:00:34 87° SSW 12:03:49 10° ESE daylight
09 Jul - 13:34:13 10° W 13:36:37 19° SW 13:38:58 10° S daylight
